timestamp,surface_pressure_avg,surface_temp_avg,battery_voltage,lat,long
2024-05-10 00:09:01+00:00,378.3563,3.1,12.41,47.84626,-54.09684
2024-05-10 00:19:00+00:00,377.8029,3.1,12.41,47.84626,-54.09684
2024-05-10 00:29:00+00:00,376.5529,3.0,12.41,47.84626,-54.09684
2024-05-10 00:39:00+00:00,378.6496,3.0,12.41,47.84626,-54.09684
2024-05-10 00:49:00+00:00,380.5463,2.98,12.41,47.84626,-54.09684
2024-05-10 00:59:00+00:00,379.8646,2.99,12.41,47.84626,-54.09684
2024-05-10 01:09:00+00:00,379.7629,3.0,12.41,47.84626,-54.09684
2024-05-10 01:19:00+00:00,379.4962,3.0,12.33,47.84626,-54.09684
2024-05-10 01:29:00+00:00,380.0746,3.0,12.33,47.84626,-54.09684
2024-05-10 01:39:00+00:00,377.0363,3.13,12.33,47.84626,-54.09684
2024-05-10 01:49:00+00:00,375.5729,3.36,12.33,47.84626,-54.09684
2024-05-10 01:59:00+00:00,370.7545,3.71,12.33,47.84626,-54.09684
2024-05-10 02:09:00+00:00,362.5096,3.99,12.33,47.84626,-54.09684
2024-05-10 02:19:00+00:00,358.5863,4.0,12.33,47.84626,-54.09684
2024-05-10 02:29:00+00:00,356.1746,3.8,12.33,47.84626,-54.09684
2024-05-10 02:39:00+00:00,349.9014,3.7,12.33,47.84626,-54.09684
2024-05-10 02:49:00+00:00,340.653,3.77,12.33,47.84626,-54.09684
2024-05-10 02:59:00+00:00,337.7397,3.99,12.33,47.84626,-54.09684
2024-05-10 03:09:00+00:00,335.6930000000001,3.9,12.33,47.84626,-54.09684
2024-05-10 03:19:00+00:00,323.3997,4.0,12.41,47.84626,-54.09684
2024-05-10 03:29:00+00:00,311.5363,4.0,12.41,47.84626,-54.09684
2024-05-10 03:39:00+00:00,302.8763,3.9,12.41,47.84626,-54.09684
2024-05-10 03:49:00+00:00,292.7664,3.82,12.41,47.84626,-54.09684
2024-05-10 03:59:00+00:00,280.7281,3.8,12.41,47.84626,-54.09684
2024-05-10 04:09:00+00:00,270.9714,3.8,12.41,47.84626,-54.09684
2024-05-10 04:19:00+00:00,260.8831,3.8,12.33,47.84626,-54.09684
2024-05-10 04:29:00+00:00,250.8264,3.96,12.33,47.84626,-54.09684
2024-05-10 04:39:00+00:00,241.9998,4.31,12.33,47.84626,-54.09684
2024-05-10 04:49:00+00:00,233.3448,4.5,12.33,47.84626,-54.09684
2024-05-10 04:59:00+00:00,223.5398,4.52,12.33,47.84626,-54.09684
2024-05-10 05:09:00+00:00,212.9698,4.6,12.33,47.84626,-54.09684
2024-05-10 05:19:00+00:00,205.3248,4.6,12.33,47.84626,-54.09684
2024-05-10 05:29:00+00:00,199.6432,4.6,12.33,47.84626,-54.09684
2024-05-10 05:39:00+00:00,193.1082,4.7,12.33,47.84626,-54.09684
2024-05-10 05:49:00+00:00,186.8398,4.7,12.33,47.84626,-54.09684
2024-05-10 05:59:00+00:00,179.3748,4.7,12.33,47.84626,-54.09684
2024-05-10 06:09:00+00:00,172.1598,4.76,12.33,47.84626,-54.09684
2024-05-10 06:19:00+00:00,170.7432,4.78,12.33,47.84626,-54.09684
2024-05-10 06:29:00+00:00,172.3081,4.79,12.33,47.84626,-54.09684
2024-05-10 06:39:00+00:00,169.2615,4.8,12.33,47.84626,-54.09684
2024-05-10 06:49:00+00:00,166.0548,4.8,12.33,47.84626,-54.09684
2024-05-10 06:59:00+00:00,169.6965,4.8,12.33,47.84626,-54.09684
2024-05-10 07:09:00+00:00,170.2948,4.8,12.33,47.84626,-54.09684
2024-05-10 07:19:00+00:00,170.5165,4.8,12.33,47.84626,-54.09684
2024-05-10 07:29:00+00:00,175.6465,4.8,12.33,47.84626,-54.09684
2024-05-10 07:39:00+00:00,178.4881,4.81,12.33,47.84626,-54.09684
2024-05-10 07:49:00+00:00,178.9565,4.82,12.33,47.84626,-54.09684
2024-05-10 07:59:00+00:00,189.7531,4.8,12.33,47.84626,-54.09684
2024-05-10 08:09:00+00:00,199.3514,4.8,12.33,47.84626,-54.09684
2024-05-10 08:19:00+00:00,196.8298,4.8,12.33,47.84626,-54.09684
2024-05-10 08:29:00+00:00,195.8164,4.8,12.33,47.84626,-54.09684
2024-05-10 08:39:00+00:00,204.3681,4.76,12.33,47.84626,-54.09684
2024-05-10 08:49:00+00:00,214.3297,4.7,12.33,47.84626,-54.09684
2024-05-10 08:59:00+00:00,214.6014,4.6,12.33,47.84626,-54.09684
2024-05-10 09:09:00+00:00,214.6615,4.5,12.33,47.84626,-54.09684
2024-05-10 09:19:00+00:00,226.4748,4.32,12.41,47.84626,-54.09684
2024-05-10 09:29:00+00:00,231.1231,4.0,12.41,47.84626,-54.09684
2024-05-10 09:39:00+00:00,226.8998,4.1,12.41,47.84626,-54.09684
2024-05-10 09:49:00+00:00,233.1548,4.1,12.41,47.84626,-54.09684
2024-05-10 09:59:00+00:00,241.6714,4.26,12.41,47.84626,-54.09684
2024-05-10 10:09:00+00:00,240.6998,4.6,12.41,47.84626,-54.09684
2024-05-10 10:19:00+00:00,240.5164,4.7,12.57,47.84626,-54.09684
2024-05-10 10:29:00+00:00,252.7548,4.7,12.57,47.84626,-54.09684
2024-05-10 10:39:00+00:00,264.7881,4.6,12.57,47.84626,-54.09684
2024-05-10 10:49:00+00:00,268.243,4.6,12.57,47.84626,-54.09684
2024-05-10 10:59:00+00:00,273.4297,4.6,12.57,47.84626,-54.09684
2024-05-10 11:09:00+00:00,285.8231,4.2,12.57,47.84626,-54.09684
2024-05-10 11:19:00+00:00,295.5298,4.34,12.57,47.84626,-54.09684
2024-05-10 11:29:00+00:00,298.198,4.34,12.57,47.84626,-54.09684
2024-05-10 11:39:00+00:00,309.5413,4.31,12.57,47.84626,-54.09684
2024-05-10 11:49:00+00:00,323.7047,4.4,12.57,47.84626,-54.09684
2024-05-10 11:59:00+00:00,326.098,4.46,12.57,47.84626,-54.09684
2024-05-10 12:09:00+00:00,323.313,4.5,12.57,47.84626,-54.09684
2024-05-10 12:19:00+00:00,333.0730000000001,4.38,12.65,47.84626,-54.09684
2024-05-10 12:29:00+00:00,339.0196,4.24,12.65,47.84626,-54.09684
2024-05-10 12:39:00+00:00,335.0663,4.3,12.65,47.84626,-54.09684
2024-05-10 12:49:00+00:00,338.6729,4.4,12.65,47.84626,-54.09684
2024-05-10 12:59:00+00:00,347.7296,4.4,12.65,47.84626,-54.09684
2024-05-10 13:09:00+00:00,346.6313,4.35,12.65,47.84626,-54.09684
2024-05-10 13:19:01+00:00,337.2962,4.4,12.81,47.84626,-54.09684
2024-05-10 13:29:01+00:00,334.7081,4.4,12.81,47.84626,-54.09684
2024-05-10 13:39:01+00:00,338.8229,4.4,12.81,47.84626,-54.09684
2024-05-10 13:49:01+00:00,334.1147,4.4,12.81,47.84626,-54.09684
2024-05-10 13:59:01+00:00,330.5563,4.4,12.81,47.84626,-54.09684
2024-05-10 14:09:01+00:00,334.4430000000001,4.4,12.81,47.84626,-54.09684
2024-05-10 14:19:00+00:00,332.793,4.4,13.05,47.84626,-54.09684
2024-05-10 14:29:00+00:00,329.0363,4.43,13.05,47.84626,-54.09684
2024-05-10 14:39:00+00:00,328.4563,4.4,13.05,47.84626,-54.09684
2024-05-10 14:49:00+00:00,327.2913,4.4,13.05,47.84626,-54.09684
2024-05-10 14:59:00+00:00,317.453,4.44,13.05,47.84626,-54.09684
2024-05-10 15:09:00+00:00,314.0247,4.5,13.05,47.84626,-54.09684
2024-05-10 15:19:00+00:00,315.9147,4.48,12.81,47.84626,-54.09684
2024-05-10 15:29:00+00:00,307.3614,4.4,12.81,47.84626,-54.09684
2024-05-10 15:39:00+00:00,295.2697,4.44,12.81,47.84626,-54.09684
2024-05-10 15:49:00+00:00,290.4147,4.49,12.81,47.84626,-54.09684
2024-05-10 15:59:00+00:00,286.2047,4.43,12.81,47.84626,-54.09684
2024-05-10 16:09:00+00:00,272.2548,4.46,12.81,47.84626,-54.09684
2024-05-10 16:19:00+00:00,259.5148,4.49,12.89,47.84626,-54.09684
2024-05-10 16:29:00+00:00,255.9631,4.4,12.89,47.84626,-54.09684
2024-05-10 16:39:00+00:00,248.9081,4.4,12.89,47.84626,-54.09684
2024-05-10 16:49:00+00:00,234.0898,4.5,12.89,47.84626,-54.09684
2024-05-10 16:59:00+00:00,223.6947,4.63,12.89,47.84626,-54.09684
2024-05-10 17:09:00+00:00,220.8381,4.7,12.89,47.84626,-54.09684
2024-05-10 17:19:01+00:00,211.5714,4.76,12.89,47.84626,-54.09684
2024-05-10 17:29:01+00:00,198.1732,4.83,12.89,47.84626,-54.09684
2024-05-10 17:39:01+00:00,196.0214,4.93,12.89,47.84626,-54.09684
2024-05-10 17:49:01+00:00,199.6514,5.0,12.89,47.84626,-54.09684
2024-05-10 17:59:01+00:00,195.0915,5.0,12.89,47.84626,-54.09684
2024-05-10 18:09:01+00:00,184.8282,5.0,12.89,47.84626,-54.09684
2024-05-10 18:19:00+00:00,183.0199,5.0,12.73,47.84626,-54.09684
2024-05-10 18:29:00+00:00,189.4598,4.9,12.73,47.84626,-54.09684
2024-05-10 18:39:00+00:00,191.3248,4.9,12.73,47.84626,-54.09684
2024-05-10 18:49:00+00:00,188.0348,4.89,12.73,47.84626,-54.09684
2024-05-10 18:59:00+00:00,188.4115,4.8,12.73,47.84626,-54.09684
2024-05-10 19:09:00+00:00,188.6631,4.79,12.73,47.84626,-54.09684
2024-05-10 19:19:00+00:00,186.6364,4.7,12.65,47.84626,-54.09684
2024-05-10 19:29:00+00:00,186.9948,4.7,12.65,47.84626,-54.09684
2024-05-10 19:39:00+00:00,190.1814,4.73,12.65,47.84626,-54.09684
2024-05-10 19:49:00+00:00,192.1615,4.8,12.65,47.84626,-54.09684
2024-05-10 19:59:00+00:00,196.2948,4.9,12.65,47.84626,-54.09684
2024-05-10 20:09:00+00:00,203.2248,4.75,12.65,47.84626,-54.09684
2024-05-10 20:19:00+00:00,210.6298,4.6,12.65,47.84626,-54.09684
2024-05-10 20:29:00+00:00,219.3231,4.6,12.65,47.84626,-54.09684
2024-05-10 20:39:00+00:00,223.6413,4.6,12.65,47.84626,-54.09684
2024-05-10 20:49:00+00:00,223.2864,4.6,12.65,47.84626,-54.09684
2024-05-10 20:59:00+00:00,225.0931,4.66,12.65,47.84626,-54.09684
2024-05-10 21:09:00+00:00,231.5197,4.7,12.65,47.84626,-54.09684
2024-05-10 21:19:00+00:00,237.8364,4.7,12.57,47.84626,-54.09684
2024-05-10 21:29:00+00:00,241.2397,4.7,12.57,47.84626,-54.09684
2024-05-10 21:39:00+00:00,247.5181,4.7,12.57,47.84626,-54.09684
2024-05-10 21:49:00+00:00,254.7881,4.7,12.57,47.84626,-54.09684
2024-05-10 21:59:00+00:00,261.1197,4.5,12.57,47.84626,-54.09684
2024-05-10 22:09:00+00:00,264.9681,4.49,12.57,47.84626,-54.09684
2024-05-10 23:19:00+00:00,300.0114,3.3,12.41,47.84626,-54.09684
2024-05-10 23:29:00+00:00,311.673,3.3,12.41,47.84626,-54.09684
2024-05-10 23:39:00+00:00,327.358,3.2,12.41,47.84626,-54.09684
2024-05-10 23:49:00+00:00,338.8447,3.2,12.41,47.84626,-54.09684
2024-05-10 23:59:00+00:00,343.1263,3.2,12.41,47.84626,-54.09684
